When you browse on this site, cookies collect data to enhance your experience and personalize the content and advertising you see.
Visit our Privacy Policy to learn more. By continuing to use the site, you agree to this use of cookies and data.
  • En España
  • Lista de países
  • Para 7 días
  • Temperatura del agua
  • El tiempo en el mapa
  • Informadores
  • user-avatar
    Iniciar sesión

    Tiempo cada hora Port Said

    Hoy, 21 Octubre, Lunes

    Tiempo Temperatura Precipitaciones Viento Presión Humedad
    00:00 +23°C° 0 mm 5 mps 761 mmHg 70%
    01:00 +23°C° 0 mm 4 mps 761 mmHg 69%
    02:00 +23°C° 0 mm 4 mps 761 mmHg 69%
    03:00 +24°C° 0 mm 3 mps 761 mmHg 66%
    04:00 +24°C° 0 mm 3 mps 761 mmHg 64%
    05:00 +24°C° 0 mm 3 mps 761 mmHg 61%
    06:00 +25°C° 0 mm 3 mps 761 mmHg 57%
    07:00 +26°C° 0 mm 3 mps 761 mmHg 53%
    08:00 +27°C° 0 mm 3 mps 761 mmHg 50%
    09:00 +29°C° 0 mm 3 mps 761 mmHg 46%
    10:00 +30°C° 0 mm 4 mps 761 mmHg 43%
    11:00 +33°C° 0 mm 4 mps 761 mmHg 40%
    12:00 +32°C° 0 mm 5 mps 760 mmHg 41%
    13:00 +32°C° 0 mm 5 mps 760 mmHg 41%
    14:00 +32°C° 0 mm 6 mps 759 mmHg 42%
    15:00 +30°C° 0 mm 5 mps 759 mmHg 48%
    16:00 +29°C° 0 mm 5 mps 759 mmHg 53%
    17:00 +28°C° 0 mm 5 mps 759 mmHg 58%
    18:00 +27°C° 0 mm 5 mps 759 mmHg 60%
    19:00 +27°C° 0 mm 6 mps 759 mmHg 61%
    20:00 +27°C° 0 mm 6 mps 759 mmHg 62%
    21:00 +27°C° 0 mm 6 mps 759 mmHg 62%
    22:00 +27°C° 0 mm 5 mps 759 mmHg 62%
    23:00 +27°C° 0 mm 5 mps 759 mmHg 62%

    Mañana, 22 Octubre, Martes

    Tiempo Temperatura Precipitaciones Viento Presión Humedad
    00:00 +26°C° 0 mm 5 mps 759 mmHg 63%
    01:00 +26°C° 0 mm 4 mps 758 mmHg 64%
    02:00 +25°C° 0 mm 4 mps 758 mmHg 65%
    03:00 +25°C° 0 mm 3 mps 758 mmHg 65%
    04:00 +25°C° 0 mm 3 mps 758 mmHg 65%
    05:00 +24°C° 0 mm 2 mps 758 mmHg 65%
    06:00 +25°C° 0 mm 3 mps 758 mmHg 60%
    07:00 +27°C° 0 mm 3 mps 758 mmHg 55%
    08:00 +28°C° 0 mm 4 mps 758 mmHg 50%
    09:00 +29°C° 0 mm 4 mps 758 mmHg 49%
    10:00 +29°C° 0 mm 4 mps 758 mmHg 48%
    11:00 +30°C° 0 mm 4 mps 758 mmHg 46%
    12:00 +30°C° 0 mm 4 mps 758 mmHg 45%
    13:00 +30°C° 0 mm 4 mps 757 mmHg 44%
    14:00 +30°C° 0 mm 5 mps 757 mmHg 43%
    15:00 +29°C° 0 mm 5 mps 757 mmHg 48%
    16:00 +28°C° 0 mm 5 mps 757 mmHg 54%
    17:00 +27°C° 0 mm 5 mps 757 mmHg 59%
    18:00 +26°C° 0.6 mm 4 mps 757 mmHg 63%
    19:00 +26°C° 0.6 mm 3 mps 757 mmHg 66%
    20:00 +25°C° 0.6 mm 2 mps 758 mmHg 69%
    21:00 +25°C° 0 mm 3 mps 758 mmHg 67%
    22:00 +26°C° 0 mm 3 mps 758 mmHg 65%
    23:00 +26°C° 0 mm 4 mps 758 mmHg 63%

    Pasado mañana, 23 Octubre, Miércoles

    Tiempo Temperatura Precipitaciones Viento Presión Humedad
    00:00 +26°C° 0.8 mm 4 mps 758 mmHg 66%
    01:00 +25°C° 0.8 mm 4 mps 757 mmHg 68%
    02:00 +25°C° 0.8 mm 4 mps 757 mmHg 71%
    03:00 +23°C° 1.8 mm 4 mps 757 mmHg 72%
    04:00 +23°C° 1.8 mm 4 mps 757 mmHg 73%
    05:00 +22°C° 1.8 mm 5 mps 758 mmHg 74%
    06:00 +22°C° 0.1 mm 4 mps 758 mmHg 71%
    07:00 +22°C° 0.1 mm 3 mps 758 mmHg 69%
    08:00 +23°C° 0.1 mm 1 mps 758 mmHg 67%
    09:00 +25°C° 0.1 mm 1 mps 758 mmHg 61%
    10:00 +26°C° 0.1 mm 1 mps 758 mmHg 55%
    11:00 +27°C° 0.1 mm 1 mps 758 mmHg 49%
    12:00 +28°C° 0 mm 2 mps 758 mmHg 48%
    13:00 +28°C° 0 mm 4 mps 758 mmHg 47%
    14:00 +29°C° 0 mm 5 mps 757 mmHg 46%
    15:00 +28°C° 0 mm 5 mps 757 mmHg 49%
    16:00 +27°C° 0 mm 5 mps 757 mmHg 52%
    17:00 +27°C° 0 mm 5 mps 758 mmHg 55%
    18:00 +26°C° 0 mm 5 mps 758 mmHg 56%
    19:00 +26°C° 0 mm 4 mps 758 mmHg 58%
    20:00 +26°C° 0 mm 3 mps 758 mmHg 59%
    21:00 +25°C° 0 mm 3 mps 758 mmHg 60%
    22:00 +25°C° 0 mm 3 mps 758 mmHg 61%
    23:00 +25°C° 0 mm 3 mps 758 mmHg 62%

    24 Octubre, Jueves

    Tiempo Temperatura Precipitaciones Viento Presión Humedad
    00:00 +24°C° 0 mm 3 mps 758 mmHg 63%
    01:00 +24°C° 0 mm 2 mps 758 mmHg 65%
    02:00 +24°C° 0 mm 2 mps 758 mmHg 66%
    03:00 +22°C° 0 mm 3 mps 758 mmHg 68%
    04:00 +22°C° 0 mm 3 mps 758 mmHg 69%
    05:00 +22°C° 0 mm 3 mps 758 mmHg 71%
    06:00 +22°C° 0.2 mm 3 mps 758 mmHg 68%
    07:00 +24°C° 0.2 mm 3 mps 758 mmHg 65%
    08:00 +25°C° 0.2 mm 4 mps 759 mmHg 62%
    09:00 +26°C° 0.5 mm 3 mps 759 mmHg 56%
    10:00 +27°C° 0.5 mm 3 mps 759 mmHg 50%
    11:00 +28°C° 0.5 mm 3 mps 759 mmHg 44%
    12:00 +28°C° 0 mm 3 mps 758 mmHg 44%
    13:00 +28°C° 0 mm 4 mps 758 mmHg 44%
    14:00 +28°C° 0 mm 4 mps 758 mmHg 44%
    15:00 +28°C° 0.6 mm 5 mps 758 mmHg 49%
    16:00 +27°C° 0.6 mm 5 mps 758 mmHg 53%
    17:00 +26°C° 0.6 mm 6 mps 758 mmHg 58%
    18:00 +25°C° 1 mm 5 mps 758 mmHg 60%
    19:00 +25°C° 1 mm 4 mps 759 mmHg 62%
    20:00 +24°C° 1 mm 2 mps 759 mmHg 64%
    21:00 +24°C° 0.5 mm 3 mps 759 mmHg 64%
    22:00 +24°C° 0.5 mm 3 mps 759 mmHg 65%
    23:00 +24°C° 0.5 mm 3 mps 759 mmHg 65%

    25 Octubre, Viernes

    Tiempo Temperatura Precipitaciones Viento Presión Humedad
    00:00 +24°C° 0 mm 3 mps 759 mmHg 66%
    01:00 +24°C° 0 mm 3 mps 758 mmHg 66%
    02:00 +23°C° 0 mm 2 mps 758 mmHg 67%
    03:00 +22°C° 0 mm 3 mps 758 mmHg 69%
    04:00 +21°C° 0 mm 3 mps 758 mmHg 71%
    05:00 +21°C° 0 mm 4 mps 758 mmHg 74%
    06:00 +21°C° 0 mm 4 mps 759 mmHg 71%
    07:00 +22°C° 0 mm 4 mps 759 mmHg 68%
    08:00 +23°C° 0 mm 4 mps 759 mmHg 66%
    09:00 +25°C° 0.1 mm 4 mps 759 mmHg 60%
    10:00 +26°C° 0.1 mm 4 mps 760 mmHg 55%
    11:00 +28°C° 0.1 mm 4 mps 760 mmHg 49%
    12:00 +28°C° 0.1 mm 5 mps 759 mmHg 49%
    13:00 +28°C° 0.1 mm 5 mps 759 mmHg 50%
    14:00 +28°C° 0.1 mm 6 mps 759 mmHg 50%
    15:00 +28°C° 0.4 mm 6 mps 759 mmHg 54%
    16:00 +27°C° 0.4 mm 6 mps 759 mmHg 59%
    17:00 +26°C° 0.4 mm 6 mps 759 mmHg 63%
    18:00 +26°C° 0.2 mm 6 mps 759 mmHg 66%
    19:00 +24°C° 0.2 mm 6 mps 760 mmHg 69%
    20:00 +24°C° 0.2 mm 6 mps 760 mmHg 72%
    21:00 +25°C° 0 mm 5 mps 760 mmHg 72%
    22:00 +23°C° 0 mm 4 mps 760 mmHg 72%
    23:00 +23°C° 0 mm 4 mps 760 mmHg 73%

    26 Octubre, Sábado

    Tiempo Temperatura Precipitaciones Viento Presión Humedad
    00:00 +24°C° 0 mm 3 mps 760 mmHg 73%
    01:00 +24°C° 0 mm 3 mps 760 mmHg 73%
    02:00 +23°C° 0 mm 2 mps 760 mmHg 74%
    03:00 +23°C° 0 mm 2 mps 760 mmHg 75%
    04:00 +23°C° 0 mm 2 mps 760 mmHg 76%
    05:00 +21°C° 0 mm 2 mps 760 mmHg 77%
    06:00 +23°C° 0 mm 2 mps 760 mmHg 74%
    07:00 +23°C° 0 mm 2 mps 761 mmHg 71%
    08:00 +24°C° 0 mm 2 mps 761 mmHg 68%
    09:00 +25°C° 0 mm 2 mps 761 mmHg 63%
    10:00 +26°C° 0 mm 2 mps 761 mmHg 57%
    11:00 +27°C° 0 mm 2 mps 761 mmHg 51%
    12:00 +28°C° 0 mm 2 mps 761 mmHg 48%
    13:00 +28°C° 0 mm 3 mps 761 mmHg 45%
    14:00 +29°C° 0 mm 4 mps 760 mmHg 42%
    15:00 +28°C° 0 mm 4 mps 760 mmHg 47%
    16:00 +27°C° 0 mm 5 mps 760 mmHg 53%
    17:00 +26°C° 0 mm 5 mps 760 mmHg 59%
    18:00 +26°C° 0 mm 5 mps 760 mmHg 60%
    19:00 +25°C° 0 mm 4 mps 761 mmHg 61%
    20:00 +25°C° 0 mm 4 mps 761 mmHg 62%
    21:00 +25°C° 0 mm 3 mps 761 mmHg 63%
    22:00 +25°C° 0 mm 3 mps 761 mmHg 64%
    23:00 +25°C° 0 mm 2 mps 761 mmHg 64%

    27 Octubre, Domingo

    Tiempo Temperatura Precipitaciones Viento Presión Humedad
    00:00 +24°C° 0 mm 2 mps 761 mmHg 66%
    01:00 +24°C° 0 mm 1 mps 761 mmHg 67%
    02:00 +24°C° 0 mm 1 mps 761 mmHg 69%
    03:00 +23°C° 0 mm 1 mps 761 mmHg 69%
    04:00 +23°C° 0 mm 1 mps 761 mmHg 70%
    05:00 +23°C° 0 mm 2 mps 761 mmHg 70%
    06:00 +23°C° 0 mm 2 mps 761 mmHg 67%
    07:00 +24°C° 0 mm 2 mps 761 mmHg 64%
    08:00 +25°C° 0 mm 2 mps 761 mmHg 61%
    09:00 +26°C° 0 mm 2 mps 761 mmHg 58%
    10:00 +26°C° 0 mm 3 mps 761 mmHg 54%
    11:00 +27°C° 0 mm 3 mps 761 mmHg 50%
    12:00 +27°C° 0 mm 3 mps 761 mmHg 49%
    13:00 +27°C° 0 mm 4 mps 760 mmHg 48%
    14:00 +27°C° 0 mm 4 mps 760 mmHg 47%
    15:00 +27°C° 0 mm 4 mps 760 mmHg 48%
    16:00 +26°C° 0 mm 4 mps 760 mmHg 49%
    17:00 +26°C° 0 mm 4 mps 760 mmHg 50%
    18:00 +25°C° 0 mm 4 mps 760 mmHg 52%
    19:00 +25°C° 0 mm 4 mps 760 mmHg 55%
    20:00 +25°C° 0 mm 4 mps 761 mmHg 57%
    21:00 +24°C° 0 mm 3 mps 761 mmHg 57%
    22:00 +24°C° 0 mm 3 mps 761 mmHg 58%
    23:00 +24°C° 0 mm 3 mps 761 mmHg 58%
    Mostrar más